Weather Roundup
Issued by NWS Chicago, IL

Home | Current Version | Previous Version | Graphics & Text | Print | Product List | Glossary On
Versions: 1 2 3 4 5 6 7 8 9 10 11 12 13 14 15 16 17 18 19 20 21 22 23 24 25 26 27 28 29 30 31 32 33 34 35 36 37 38 39 40 41 42 43 44 45 46 47 48 49 50
000
NZUS59 KLOT 080112
HRRLOT

CHICAGO AREA WEATHER ROUNDUP
NATIONAL WEATHER SERVICE CHICAGO/ROMEOVILLE IL
700 PM CST WED DEC 07 2016

NOTE: "FAIR" INDICATES FEW OR NO CLOUDS BELOW 12,000 FEET WITH NO
SIGNIFICANT WEATHER AND/OR OBSTRUCTIONS TO VISIBILITY.

* THESE STATIONS ARE NOT UNDER NWS QUALITY CONTROL. THEY ALSO MAY NOT
  REPORT WEATHER SUCH AS PRECIPITATION OR FOG.

ILZ005-006-012>014-019>023-080200-
NORTHEAST ILLINOIS

CITY           SKY/WX    TMP DP  RH WIND       PRES   REMARKS
OHARE          MOCLDY    23  16  74 W20G31    30.12R WCI   8
MIDWAY         MOCLDY    26  16  65 W16G26    30.14R WCI  14
AURORA         PTCLDY    23  16  74 W21       30.16R WCI   8
LANSING*       CLEAR     26  21  82 W18G24    30.15S WCI  12
JOLIET*        PTCLDY    27  20  75 W12G17    30.17S WCI  16
WAUKEGAN       CLOUDY    23  16  74 VRB5G20   30.09R WCI  17
DUPAGE AIRPORT MOCLDY    23  15  71 W15       30.13S WCI  10
WHEELING       CLOUDY    24  15  68 W16G24    30.13S WCI  11
KANKAKEE*      CLEAR     27  20  77 W13       30.18S WCI  16
MORRIS*        PTCLDY    26  19  76 W12G20    30.18R WCI  15
LEWIS AIRPORT* PTCLDY    24  21  87 W16G25    30.16S WCI  11
NORTHERLY ISL    N/A     26  18  71 W14         N/A  WCI  15
$$

WIZ051-052-058>065-066-070>072-080200-
SOUTHEAST WISCONSIN

CITY           SKY/WX    TMP DP  RH WIND       PRES   REMARKS
MILWAUKEE      CLOUDY    23  12  62 W14G29    30.07S WCI  11
KENOSHA*       CLOUDY    22  14  71 W23G33    30.08S WCI   6
RACINE*        CLOUDY    22  13  68 W16G24    30.09S WCI   8
BURLINGTON     CLOUDY    21  15  76 W15G23    30.09S WCI   8
WAUKESHA       MOCLDY    18  12  79 W20G26    30.07R WCI   1
WEST BEND      CLOUDY    21  16  79 W17G26    30.03R WCI   7
$$

INZ001>003-010>013-019-020-080200-
NORTHWEST INDIANA

CITY           SKY/WX    TMP DP  RH WIND       PRES   REMARKS
GARY*          CLEAR     28  19  69 W17G33    30.15R WCI  16
MICHIGAN CITY* NOT AVBL
RENSSELAER*    NOT AVBL
VALPARAISO     PTCLDY    27  20  75 W12       30.14R WCI  17
$$

LMZ740>746-080200-
SOUTHERN LAKE MICHIGAN

STATION/POSITION TIME  SKY/WX   TEMP WIND        PRES    VSBY
                                AIR  DIR/SP/G
                 (UTC)          (F)  (DEG/KT/KT) (MB)    (MI)
HARRISON CRIB    0040            26  260/ 25/ 30   N/A
BURNHAM HARBOR   0100            26  230/ 14/ 18   N/A
CALUMET HARBOR   0048            25  240/  9/ 17 1019.8R
BURNS HARBOR     0040            30  260/ 22/ 29 1020.3S
MICHIGAN CITY    0040            29  220/ 34/ 37   N/A
$$

ABBREVIATIONS USED IN REMARKS
   TC - TEMPERATURE IN CELSIUS
  WCI - WIND CHILL INDEX
   HX - HEAT INDEX
  VSB - VISIBILITY
$$




USA.gov is the U.S. government's official web portal to all federal, state and local government web resources and services.